Tracking 28766 objects as of 13-Apr-2024
HD Live streaming from Space Station
objects crossing your sky now

SOLRAD 3/INJUN 1

Track SOLRAD 3/INJUN 1 now!
10-day predictions
SOLRAD 3/INJUN 1 is classified as:


NORAD ID: 117
Int'l Code: 1961-015B
Perigee: 882.6 km
Apogee: 988.9 km
Inclination: 66.8 °
Period: 103.6 minutes
Semi major axis: 7306 km
RCS: 0.4448 m2 (medium)
Launch date: June 29, 1961
Source: United States (US)
Launch site: AIR FORCE EASTERN TEST RANGE (AFETR)
Your satellite tracking list
Your tracking list is empty




NASA's NSSDC Master Catalog

Two Line Element Set (TLE):
1 00117U 61015B   24103.50449742  .00000004  00000-0  63533-4 0  9995
2 00117  66.8109 144.6884 0072790 138.2032 222.4638 13.90007538183465
Source of the keplerian elements: AFSPC